This demonstration page uses our WeatherBlox Daily Observations layout. Learn more.

Hourly Observations for June 1, 2015

Temp ( °F °C ) Dew Point ( °F °C ) Humidity (%) Winds ( mph kmh ) Pressure ( in mb ) Visibility ( mi km ) Precip ( " mm )
12:15 am 00:15 Clear 61 16 52 11 72 72 SE 10 17 30.06 1018 10 16.09344 0 0
12:35 am 00:35 Clear 59 15 52 11 77 77 SE 10 17 30.06 1018 10 16.09344 0 0
12:55 am 00:55 Partly Cloudy 59 15 52 11 77 77 SE 9 15 30.06 1018 10 16.09344 0 0
1:15 am 01:15 Mostly Cloudy 59 15 52 11 77 77 SE 8 13 30.06 1018 10 16.09344 0 0
1:35 am 01:35 Partly Cloudy 59 15 52 11 77 77 SE 9 15 30.06 1018 10 16.09344 0 0
1:55 am 01:55 Partly Cloudy 59 15 52 11 77 77 SE 9 15 30.06 1018 10 16.09344 0 0
2:15 am 02:15 Partly Cloudy 57 14 52 11 82 82 SE 12 19 30.06 1018 10 16.09344 0 0
2:35 am 02:35 Clear 57 14 52 11 82 82 SE 9 15 30.06 1018 10 16.09344 0 0
2:55 am 02:55 Partly Cloudy 57 14 52 11 82 82 SSE 8 13 30.06 1018 10 16.09344 0 0
3:15 am 03:15 Partly Cloudy 57 14 52 11 82 82 SSE 9 15 30.06 1018 10 16.09344 0 0
3:35 am 03:35 Partly Cloudy 57 14 54 12 88 88 SSE 12 19 30.06 1018 10 16.09344 0 0
3:55 am 03:55 Partly Cloudy 57 14 54 12 88 88 SE 10 17 30.06 1018 10 16.09344 0 0
4:15 am 04:15 Partly Cloudy 57 14 54 12 88 88 SSE 10 17 30.03 1017 10 16.09344 0 0
4:35 am 04:35 Partly Cloudy 57 14 54 12 88 88 SSE 9 15 30.06 1018 10 16.09344 0 0
4:55 am 04:55 Partly Cloudy with Nearby Thunderstorms 55 13 54 12 94 94 SSE 9 15 30.09 1019 10 16.09344 0 0
5:15 am 05:15 Partly Cloudy 55 13 52 11 88 88 SE 8 13 30.09 1019 10 16.09344 0 0
5:35 am 05:35 Clear 55 13 52 11 88 88 SSE 9 15 30.09 1019 10 16.09344 0 0
5:55 am 05:55 Clear 55 13 52 11 88 88 SSE 8 13 30.09 1019 10 16.09344 0 0
6:15 am 06:15 Sunny 55 13 52 11 88 88 SE 7 11 30.09 1019 10 16.09344 0 0
6:35 am 06:35 Sunny 55 13 52 11 88 88 SE 7 11 30.09 1019 10 16.09344 0 0
6:55 am 06:55 Partly Cloudy 55 13 54 12 94 94 SE 10 17 30.09 1019 10 16.09344 0 0
7:15 am 07:15 Cloudy 55 13 54 12 94 94 SSE 13 20 30.09 1019 10 16.09344 0 0
7:35 am 07:35 Cloudy 57 14 55 13 94 94 SSE 14 22 30.06 1018 10 16.09344 0 0
7:55 am 07:55 Cloudy 57 14 55 13 94 94 SSE 12 19 30.06 1018 10 16.09344 0 0
8:15 am 08:15 Mostly Cloudy 59 15 55 13 88 88 SSE 15 24 30.06 1018 10 16.09344 0 0
8:35 am 08:35 Mostly Cloudy 61 16 55 13 83 83 SSE 14 22 30.06 1018 10 16.09344 0 0
8:55 am 08:55 Cloudy 61 16 57 14 88 88 SSE 13 20 30.06 1018 10 16.09344 0 0
9:15 am 09:15 Mostly Cloudy 63 17 57 14 83 83 SSE 14 22 30.03 1017 10 16.09344 0 0
9:35 am 09:35 Partly Cloudy 64 18 57 14 78 78 SSE 14 22 30.03 1017 10 16.09344 0 0
9:55 am 09:55 Sunny 66 19 57 14 73 73 SSE 16 26 30.03 1017 10 16.09344 0 0
10:15 am 10:15 Sunny 66 19 55 13 68 68 S 17 28 30.03 1017 10 16.09344 0 0
10:35 am 10:35 Partly Cloudy 68 20 55 13 64 64 SSE 16 26 30.03 1017 10 16.09344 0 0
10:55 am 10:55 Partly Cloudy 68 20 57 14 69 69 S 15 24 30.03 1017 10 16.09344 0 0
11:15 am 11:15 Mostly Cloudy 68 20 57 14 69 69 S 14 22 30.03 1017 10 16.09344 0 0
11:35 am 11:35 Cloudy 68 20 57 14 69 69 SSE 15 24 30.03 1017 10 16.09344 0 0
11:55 am 11:55 Cloudy 68 20 57 14 69 69 SSE 13 20 30.03 1017 10 16.09344 0 0
12:15 pm 12:15 Mostly Cloudy 70 21 59 15 69 69 S 15 24 29.97 1015 10 16.09344 0 0
12:35 pm 12:35 Mostly Cloudy 70 21 57 14 64 64 SSE 16 26 29.97 1015 10 16.09344 0 0
12:55 pm 12:55 Cloudy 70 21 57 14 64 64 SSE 14 22 29.97 1015 10 16.09344 0 0
1:15 pm 13:15 Cloudy 70 21 59 15 69 69 S 17 28 29.97 1015 10 16.09344 0 0
1:35 pm 13:35 Cloudy 70 21 57 14 64 64 SSE 16 26 29.97 1015 10 16.09344 0 0
1:55 pm 13:55 Cloudy 70 21 59 15 69 69 S 15 24 29.97 1015 10 16.09344 0 0
2:15 pm 14:15 Cloudy 70 21 57 14 64 64 S 17 28 29.97 1015 10 16.09344 0 0
2:35 pm 14:35 Cloudy 70 21 57 14 64 64 S 20 31 29.97 1015 10 16.09344 0 0
2:55 pm 14:55 Cloudy 72 22 59 15 65 65 SSE 17 28 29.97 1015 10 16.09344 0 0
3:15 pm 15:15 Cloudy 70 21 59 15 69 69 SSE 17 28 29.97 1015 10 16.09344 0 0
3:35 pm 15:35 Cloudy 72 22 59 15 65 65 SSE 20 31 29.97 1015 10 16.09344 0 0
3:55 pm 15:55 Cloudy 70 21 59 15 69 69 SSE 18 30 29.97 1015 10 16.09344 0 0
4:15 pm 16:15 Cloudy 72 22 59 15 65 65 SSE 17 28 29.94 1014 10 16.09344 0 0
4:35 pm 16:35 Mostly Cloudy 73 23 59 15 61 61 SSE 20 31 29.94 1014 10 16.09344 0 0
4:55 pm 16:55 Mostly Cloudy 72 22 59 15 65 65 SSE 16 26 29.94 1014 10 16.09344 0 0
5:15 pm 17:15 Mostly Cloudy 72 22 59 15 65 65 SSE 17 28 29.94 1014 10 16.09344 0 0
5:35 pm 17:35 Mostly Cloudy 73 23 59 15 61 61 SSE 16 26 29.94 1014 10 16.09344 0 0
5:55 pm 17:55 Mostly Cloudy 73 23 59 15 61 61 SE 17 28 29.94 1014 10 16.09344 0 0
6:15 pm 18:15 Partly Cloudy 73 23 59 15 61 61 SSE 17 28 29.94 1014 10 16.09344 0 0
6:35 pm 18:35 Partly Cloudy 72 22 59 15 65 65 SSE 18 30 29.91 1013 10 16.09344 0 0
6:55 pm 18:55 Sunny 72 22 50 10 47 47 SSE 13 20 29.94 1014 10 16.09344 0 0
7:15 pm 19:15 Mostly Cloudy 72 22 59 15 65 65 SSE 17 28 29.91 1013 10 16.09344 0 0
7:35 pm 19:35 Partly Cloudy 72 22 59 15 65 65 SSE 16 26 29.91 1013 10 16.09344 0 0
7:55 pm 19:55 Sunny 70 21 59 15 69 69 SSE 18 30 29.91 1013 10 16.09344 0 0
8:15 pm 20:15 Sunny 70 21 59 15 69 69 SE 16 26 29.91 1013 10 16.09344 0 0
8:35 pm 20:35 Sunny 68 20 59 15 73 73 SSE 14 22 29.91 1013 10 16.09344 0 0
8:55 pm 20:55 Sunny 66 19 59 15 78 78 SSE 14 22 29.94 1014 10 16.09344 0 0
9:15 pm 21:15 Clear 66 19 59 15 78 78 SE 15 24 29.94 1014 10 16.09344 0 0
9:35 pm 21:35 Clear 66 19 59 15 78 78 SE 16 26 29.94 1014 10 16.09344 0 0
9:55 pm 21:55 Clear 64 18 57 14 78 78 SE 13 20 29.97 1015 10 16.09344 0 0
10:15 pm 22:15 Clear 64 18 57 14 78 78 SE 14 22 29.97 1015 10 16.09344 0 0
10:35 pm 22:35 Clear 64 18 57 14 78 78 SE 13 20 29.97 1015 10 16.09344 0 0
10:55 pm 22:55 Clear 63 17 57 14 83 83 SSE 13 20 29.97 1015 10 16.09344 0 0
11:15 pm 23:15 Clear 63 17 57 14 83 83 SE 13 20 29.97 1015 10 16.09344 0 0
11:35 pm 23:35 Clear 63 17 57 14 83 83 SSE 14 22 29.94 1014 10 16.09344 0 0
11:55 pm 23:55 Clear 63 17 57 14 83 83 SSE 12 19 29.97 1015 10 16.09344 0 0

Powered by AerisWeather